• In Netherlands
  • List of Countries
  • For 7 days
  • Water Temperature
  • Satellite Maps
  • Weather Map
  • Weather Widgets
  • user-avatar
    Login

    Hourly Weather Bruges

    Today, 21 August, Monday

    Time Temperature Precipitation Wind Pressure Humidity
    00:00 +14°C° 0 mm 3 mps 767 mmHg 79%
    01:00 +15°C° 0.1 mm 2 mps 767 mmHg 81%
    02:00 +15°C° 0.1 mm 2 mps 766 mmHg 84%
    03:00 +15°C° 0.1 mm 2 mps 766 mmHg 86%
    04:00 +15°C° 0.1 mm 2 mps 766 mmHg 86%
    05:00 +14°C° 0.1 mm 3 mps 766 mmHg 86%
    06:00 +14°C° 0.1 mm 3 mps 766 mmHg 86%
    07:00 +16°C° 0 mm 3 mps 766 mmHg 83%
    08:00 +17°C° 0 mm 3 mps 766 mmHg 80%
    09:00 +17°C° 0 mm 3 mps 766 mmHg 76%
    10:00 +18°C° 0 mm 3 mps 766 mmHg 73%
    11:00 +19°C° 0 mm 3 mps 766 mmHg 70%
    12:00 +20°C° 0 mm 3 mps 766 mmHg 67%
    13:00 +20°C° 0 mm 3 mps 766 mmHg 67%
    14:00 +21°C° 0 mm 3 mps 766 mmHg 67%
    15:00 +21°C° 0 mm 3 mps 765 mmHg 66%
    16:00 +21°C° 0 mm 2 mps 765 mmHg 70%
    17:00 +20°C° 0 mm 2 mps 765 mmHg 73%
    18:00 +19°C° 0 mm 2 mps 765 mmHg 77%
    19:00 +18°C° 0 mm 2 mps 765 mmHg 80%
    20:00 +17°C° 0 mm 2 mps 765 mmHg 84%
    21:00 +16°C° 0 mm 2 mps 765 mmHg 88%
    22:00 +16°C° 0 mm 2 mps 765 mmHg 89%
    23:00 +16°C° 0 mm 2 mps 765 mmHg 90%

    Tomorrow, 22 August, Tuesday

    Time Temperature Precipitation Wind Pressure Humidity
    00:00 +15°C° 0 mm 2 mps 765 mmHg 91%
    01:00 +15°C° 0 mm 2 mps 765 mmHg 92%
    02:00 +15°C° 0 mm 2 mps 765 mmHg 92%
    03:00 +15°C° 0 mm 2 mps 765 mmHg 93%
    04:00 +15°C° 0 mm 2 mps 765 mmHg 92%
    05:00 +16°C° 0 mm 2 mps 765 mmHg 92%
    06:00 +16°C° 0 mm 2 mps 765 mmHg 91%
    07:00 +19°C° 0 mm 1 mps 765 mmHg 85%
    08:00 +20°C° 0 mm 1 mps 765 mmHg 80%
    09:00 +22°C° 0 mm 1 mps 765 mmHg 74%
    10:00 +23°C° 0 mm 1 mps 765 mmHg 72%
    11:00 +23°C° 0 mm 1 mps 764 mmHg 69%
    12:00 +24°C° 0 mm 1 mps 764 mmHg 66%
    13:00 +25°C° 0 mm 2 mps 764 mmHg 65%
    14:00 +25°C° 0 mm 2 mps 763 mmHg 64%
    15:00 +25°C° 0 mm 2 mps 763 mmHg 62%
    16:00 +25°C° 0 mm 2 mps 763 mmHg 65%
    17:00 +24°C° 0 mm 2 mps 763 mmHg 68%
    18:00 +24°C° 0 mm 2 mps 762 mmHg 71%
    19:00 +22°C° 0 mm 3 mps 762 mmHg 74%
    20:00 +21°C° 0 mm 3 mps 762 mmHg 77%
    21:00 +20°C° 0 mm 3 mps 762 mmHg 80%
    22:00 +19°C° 0 mm 3 mps 762 mmHg 81%
    23:00 +18°C° 0 mm 4 mps 762 mmHg 82%

    Day after tomorrow, 23 August, Wednesday

    Time Temperature Precipitation Wind Pressure Humidity
    00:00 +18°C° 0 mm 4 mps 761 mmHg 84%
    01:00 +18°C° 0 mm 4 mps 761 mmHg 84%
    02:00 +17°C° 0 mm 4 mps 761 mmHg 85%
    03:00 +17°C° 0 mm 4 mps 760 mmHg 85%
    04:00 +17°C° 0 mm 4 mps 760 mmHg 85%
    05:00 +17°C° 0 mm 4 mps 760 mmHg 84%
    06:00 +17°C° 0 mm 4 mps 760 mmHg 84%
    07:00 +19°C° 0 mm 4 mps 760 mmHg 78%
    08:00 +21°C° 0 mm 4 mps 759 mmHg 71%
    09:00 +23°C° 0 mm 4 mps 759 mmHg 65%
    10:00 +26°C° 0 mm 4 mps 759 mmHg 62%
    11:00 +27°C° 0 mm 4 mps 759 mmHg 58%
    12:00 +29°C° 0 mm 4 mps 759 mmHg 55%
    13:00 +29°C° 0 mm 4 mps 759 mmHg 56%
    14:00 +29°C° 0 mm 5 mps 758 mmHg 57%
    15:00 +29°C° 0 mm 5 mps 758 mmHg 58%
    16:00 +27°C° 0 mm 6 mps 758 mmHg 63%
    17:00 +24°C° 0 mm 6 mps 759 mmHg 67%
    18:00 +22°C° 0 mm 7 mps 759 mmHg 72%
    19:00 +21°C° 0 mm 6 mps 759 mmHg 75%
    20:00 +19°C° 0 mm 6 mps 760 mmHg 78%
    21:00 +17°C° 0 mm 6 mps 760 mmHg 81%
    22:00 +16°C° 0 mm 6 mps 760 mmHg 83%
    23:00 +16°C° 0 mm 5 mps 760 mmHg 86%

    24 August, Thursday

    Time Temperature Precipitation Wind Pressure Humidity
    00:00 +15°C° 0 mm 5 mps 760 mmHg 89%
    01:00 +15°C° 0 mm 4 mps 760 mmHg 91%
    02:00 +15°C° 0 mm 4 mps 760 mmHg 92%
    03:00 +14°C° 0 mm 4 mps 760 mmHg 94%
    04:00 +15°C° 0 mm 4 mps 760 mmHg 92%
    05:00 +15°C° 0 mm 4 mps 761 mmHg 91%
    06:00 +15°C° 0 mm 4 mps 761 mmHg 90%
    07:00 +16°C° 0 mm 5 mps 761 mmHg 84%
    08:00 +19°C° 0 mm 5 mps 761 mmHg 78%
    09:00 +20°C° 0 mm 5 mps 761 mmHg 72%
    10:00 +21°C° 0.1 mm 5 mps 761 mmHg 69%
    11:00 +21°C° 0.1 mm 5 mps 761 mmHg 65%
    12:00 +22°C° 0.1 mm 5 mps 761 mmHg 62%
    13:00 +22°C° 0 mm 6 mps 761 mmHg 61%
    14:00 +22°C° 0 mm 6 mps 761 mmHg 60%
    15:00 +22°C° 0 mm 6 mps 761 mmHg 59%
    16:00 +21°C° 0 mm 6 mps 761 mmHg 63%
    17:00 +21°C° 0 mm 5 mps 761 mmHg 66%
    18:00 +20°C° 0 mm 5 mps 761 mmHg 70%
    19:00 +17°C° 0 mm 5 mps 761 mmHg 73%
    20:00 +16°C° 0 mm 5 mps 761 mmHg 77%
    21:00 +15°C° 0 mm 4 mps 761 mmHg 80%
    22:00 +15°C° 0 mm 4 mps 761 mmHg 82%
    23:00 +14°C° 0 mm 4 mps 761 mmHg 85%

    25 August, Friday

    Time Temperature Precipitation Wind Pressure Humidity
    00:00 +14°C° 0 mm 4 mps 761 mmHg 87%
    01:00 +14°C° 0 mm 4 mps 761 mmHg 89%
    02:00 +13°C° 0 mm 4 mps 761 mmHg 90%
    03:00 +13°C° 0 mm 3 mps 761 mmHg 92%
    04:00 +13°C° 0 mm 3 mps 761 mmHg 91%
    05:00 +14°C° 0 mm 3 mps 761 mmHg 90%
    06:00 +14°C° 0 mm 3 mps 761 mmHg 89%
    07:00 +16°C° 0 mm 3 mps 761 mmHg 83%
    08:00 +18°C° 0 mm 3 mps 761 mmHg 78%
    09:00 +19°C° 0 mm 3 mps 761 mmHg 72%
    10:00 +20°C° 0 mm 3 mps 761 mmHg 66%
    11:00 +22°C° 0 mm 3 mps 761 mmHg 61%
    12:00 +24°C° 0 mm 3 mps 761 mmHg 55%
    13:00 +24°C° 0 mm 3 mps 760 mmHg 53%
    14:00 +25°C° 0 mm 2 mps 760 mmHg 51%
    15:00 +25°C° 0 mm 2 mps 760 mmHg 49%
    16:00 +24°C° 0 mm 2 mps 760 mmHg 55%
    17:00 +23°C° 0 mm 2 mps 760 mmHg 61%
    18:00 +21°C° 0 mm 2 mps 760 mmHg 66%
    19:00 +20°C° 0 mm 2 mps 760 mmHg 70%
    20:00 +19°C° 0 mm 2 mps 760 mmHg 73%
    21:00 +18°C° 0 mm 2 mps 760 mmHg 76%
    22:00 +18°C° 0 mm 2 mps 760 mmHg 76%
    23:00 +19°C° 0 mm 1 mps 760 mmHg 77%

    26 August, Saturday

    Time Temperature Precipitation Wind Pressure Humidity
    00:00 +19°C° 0 mm 1 mps 759 mmHg 77%
    01:00 +19°C° 0 mm 1 mps 759 mmHg 76%
    02:00 +19°C° 0 mm 1 mps 759 mmHg 76%
    03:00 +19°C° 0 mm 1 mps 759 mmHg 75%
    04:00 +19°C° 0 mm 1 mps 759 mmHg 76%
    05:00 +18°C° 0 mm 2 mps 759 mmHg 78%
    06:00 +18°C° 0 mm 2 mps 759 mmHg 79%
    07:00 +19°C° 0 mm 2 mps 759 mmHg 74%
    08:00 +20°C° 0 mm 2 mps 759 mmHg 70%
    09:00 +21°C° 0 mm 3 mps 759 mmHg 66%
    10:00 +22°C° 0 mm 3 mps 759 mmHg 63%
    11:00 +24°C° 0 mm 3 mps 759 mmHg 61%
    12:00 +24°C° 0 mm 3 mps 759 mmHg 58%
    13:00 +24°C° 0 mm 3 mps 759 mmHg 59%
    14:00 +24°C° 0 mm 3 mps 759 mmHg 59%
    15:00 +24°C° 0 mm 3 mps 759 mmHg 60%
    16:00 +22°C° 0 mm 3 mps 759 mmHg 63%
    17:00 +21°C° 0 mm 3 mps 759 mmHg 67%
    18:00 +21°C° 0 mm 3 mps 759 mmHg 70%
    19:00 +19°C° 0 mm 4 mps 759 mmHg 74%
    20:00 +18°C° 0 mm 4 mps 759 mmHg 78%
    21:00 +17°C° 0 mm 4 mps 760 mmHg 82%
    22:00 +16°C° 0 mm 5 mps 760 mmHg 85%
    23:00 +15°C° 0 mm 5 mps 760 mmHg 88%
    Show more